Wind_Speed
15 15 16 17 17 17 17 17 16 16 16 15 12 9 11 12 10 8 8 5 10 11 8 3 7 13 10 29 19 12 9 12 16 14 12 14 15 17 17 23 16 18 27 28 26
16 16 17 17 18 18 18 17 17 16 15 15 13 10 9 11 12 14 15 13 12 12 8 11 12 29 13 18 20 2 10 12 18 13 13 18 17 17 16 14 8 21 28 28 27
16 17 17 18 18 19 19 19 18 16 15 15 13 10 8 8 11 16 18 16 12 12 12 12 9 12 8 8 18 19 12 10 16 18 18 16 10 16 10 14 19 29 30 28 26
18 18 18 19 19 19 19 19 18 16 15 14 11 9 6 4 4 3 9 12 13 12 15 16 22 23 23 22 12 14 16 14 12 14 8 13 11 11 9 18 22 25 27 27 25
18 19 19 19 20 19 19 19 17 16 14 12 9 7 5 7 16 6 5 12 15 13 14 18 21 10 19 20 25 8 14 15 14 12 11 7 15 12 14 16 22 25 25 24 22
18 19 19 19 20 20 19 19 16 14 11 10 8 6 5 14 3 3 3 9 15 13 14 17 17 9 15 20 18 11 16 15 15 13 6 13 12 15 15 18 22 25 23 21 20
19 19 20 20 20 20 19 18 15 12 9 8 8 6 9 17 5 5 7 9 14 15 17 13 10 16 9 20 7 13 13 13 14 12 12 17 5 13 19 21 23 22 22 20 19
19 20 20 20 20 19 19 17 15 11 9 8 6 6 9 1 9 7 9 11 13 15 15 14 10 17 15 11 11 13 5 4 14 13 23 26 8 15 20 22 22 22 20 19 19
19 19 20 19 19 19 17 16 13 10 9 7 3 4 15 7 12 15 12 13 12 16 15 15 14 17 21 2 10 9 12 12 10 10 19 15 15 18 20 21 21 21 20 18 17
19 19 19 19 18 18 16 16 11 10 4 5 7 9 13 12 8 9 12 13 12 14 17 17 17 13 14 6 7 21 19 7 13 10 11 14 15 17 22 21 21 21 20 19 19
19 19 18 17 15 15 13 15 9 2 5 15 13 15 4 6 4 8 12 13 13 14 16 21 14 15 19 18 33 32 27 14 8 4 12 10 17 19 23 21 22 22 22 22 21
18 18 17 15 12 9 11 11 7 9 14 17 20 16 17 5 9 12 16 15 18 16 16 17 19 20 18 20 22 29 21 16 5 4 5 20 17 19 20 19 21 21 22 22 22
18 18 16 12 7 6 8 7 9 12 8 17 15 16 15 17 15 14 20 20 14 17 17 19 20 18 17 16 13 11 9 12 19 4 7 8 10 18 10 16 19 20 22 22 24
18 17 16 9 5 6 4 6 10 9 6 11 11 9 9 11 13 19 20 20 16 17 18 17 22 18 14 18 15 17 11 12 2 4 8 7 6 8 18 13 14 18 23 23 23
18 17 12 13 7 4 6 10 11 6 6 7 12 7 8 14 7 17 15 19 19 17 12 15 18 16 12 15 14 15 10 8 8 10 11 15 6 4 6 5 10 17 23 24 25
17 16 12 9 9 5 13 12 8 6 9 9 8 9 12 17 10 16 13 16 20 18 15 18 12 15 19 13 14 11 17 12 10 12 12 17 9 11 5 7 5 23 32 26 27
15 15 14 10 7 6 8 9 6 9 6 7 6 9 10 12 15 11 12 16 16 14 15 15 18 7 9 11 14 16 16 10 11 11 13 13 7 5 16 20 23 39 36 29 27
15 14 12 12 9 9 7 7 9 14 9 6 3 5 10 13 13 13 11 13 17 18 14 15 15 18 14 17 14 16 17 11 12 13 10 6 10 10 19 36 34 39 41 32 29
13 6 9 6 6 7 9 10 12 13 9 4 6 7 10 8 8 12 14 16 18 20 19 12 16 17 21 14 14 17 14 15 18 20 16 4 3 6 20 20 22 11 31 29 31
13 7 12 9 6 6 9 15 17 16 5 10 13 10 12 13 11 8 12 14 15 19 20 20 14 10 20 15 16 16 15 13 10 15 15 5 9 5 22 22 15 13 25 26 26
9 6 11 6 8 12 10 15 18 16 4 8 15 16 9 8 10 9 9 9 11 14 15 15 16 10 13 10 14 11 14 12 16 13 12 11 5 11 6 7 11 16 18 26 27
7 6 8 8 11 14 12 19 18 10 4 10 9 13 14 13 6 7 15 8 17 10 15 15 11 13 14 13 15 16 17 16 12 11 13 9 5 9 15 9 5 19 12 17 23
7 15 4 11 8 12 18 21 19 8 15 9 11 13 15 13 6 10 14 2 9 6 8 14 11 13 13 15 13 13 19 17 18 17 13 11 3 3 9 9 10 14 14 11 2
7 4 12 12 19 17 19 14 15 14 17 14 12 13 10 11 11 12 10 7 4 8 6 5 14 13 13 12 15 18 16 12 16 12 14 11 8 14 13 15 10 16 11 10 11
6 5 9 4 12 15 18 17 10 15 12 16 11 13 13 14 15 13 11 5 6 9 4 8 14 15 18 16 8 15 17 18 19 18 16 10 7 17 11 16 10 15 15 14 14
8 10 16 20 19 11 10 14 14 12 13 13 11 16 15 13 10 13 11 2 3 12 10 11 13 13 15 17 6 9 14 14 16 19 17 14 5 23 20 22 16 12 18 14 15
8 11 14 13 14 12 11 11 14 16 16 10 12 12 6 8 15 18 20 19 11 14 7 14 12 12 13 16 9 12 13 14 13 17 13 12 12 20 17 15 21 21 21 20 17
Wind_Direction
353 352 351 349 347 345 342 340 338 335 333 330 324 308 288 284 274 268 265 250 278 290 323 280 301 262 273 77 48 282 82 76 96 107 118 93 89 88 117 142 146 153 149 151 152
347 346 345 345 343 342 340 338 336 333 330 327 323 313 294 286 279 256 247 259 260 277 262 278 351 350 301 140 162 249 74 66 108 123 97 101 120 140 137 138 136 129 136 150 155
341 340 340 341 339 338 338 337 334 330 329 325 320 313 301 297 299 236 235 240 247 266 273 293 295 278 238 257 141 89 102 93 69 102 117 127 151 122 152 151 146 139 147 156 160
336 335 335 336 335 335 335 336 333 329 329 326 319 311 297 264 252 197 222 226 236 256 277 282 277 180 245 50 55 107 103 106 116 101 89 114 129 84 109 136 143 148 155 160 165
332 331 331 331 331 332 334 334 330 329 332 330 323 309 284 254 261 247 280 227 228 245 264 290 309 342 76 72 321 146 121 114 124 125 108 111 108 105 103 122 141 151 159 164 170
330 329 329 329 327 329 331 332 329 326 329 331 329 309 269 250 230 209 217 250 220 239 261 275 309 338 133 147 175 197 146 138 139 122 164 121 124 111 116 133 142 154 164 170 175
325 326 327 327 325 327 328 329 327 321 317 323 326 310 262 240 234 241 247 244 236 233 251 267 286 299 337 160 193 145 152 147 143 150 97 38 194 115 135 142 150 161 169 174 180
320 321 324 324 324 325 327 326 323 314 310 304 310 304 257 212 222 255 233 232 230 235 246 273 287 284 292 127 195 215 33 218 151 161 122 131 165 138 146 152 160 167 174 176 179
321 320 321 321 324 325 328 324 318 309 297 286 295 279 263 240 246 240 224 226 230 237 244 254 274 271 276 118 16 346 227 189 143 183 155 190 142 149 160 162 167 171 174 176 179
324 322 321 321 325 327 335 329 314 304 297 269 244 268 251 248 217 190 208 219 233 229 233 240 248 250 257 95 106 283 286 194 164 167 197 191 146 157 170 169 175 179 177 180 181
325 325 322 320 325 333 359 4 318 261 255 254 298 255 253 253 253 224 209 210 224 224 229 229 239 237 247 130 175 202 226 219 122 199 207 204 150 167 173 179 179 186 182 185 188
325 326 324 323 326 341 349 341 13 327 297 267 257 249 257 244 270 218 203 206 215 226 220 239 227 244 251 161 191 200 232 32 141 202 174 221 170 163 175 190 183 191 186 191 189
328 328 325 325 329 7 328 314 328 330 270 288 224 231 233 226 241 234 198 208 214 224 227 230 238 223 251 251 255 238 259 110 229 181 244 268 80 120 27 230 198 194 194 199 194
325 329 330 325 336 299 314 322 326 325 280 214 189 220 203 206 227 233 196 214 233 227 230 238 244 245 217 254 245 258 208 209 172 253 275 206 201 154 183 187 210 206 201 197 199
319 320 332 321 288 288 317 320 320 303 288 149 134 145 215 198 95 199 188 210 228 227 247 238 240 256 253 255 247 268 282 327 320 270 260 246 242 62 146 216 279 238 217 202 193
313 310 317 323 291 308 302 311 308 241 251 144 147 195 193 216 237 145 199 220 226 243 236 258 250 228 251 243 278 269 273 274 241 272 271 268 241 141 161 194 256 278 265 211 190
307 297 294 282 213 236 306 306 236 244 97 197 195 171 207 192 231 163 201 200 218 220 236 228 255 244 275 275 250 242 251 254 252 243 252 271 20 206 195 200 180 213 233 199 202
303 294 287 278 246 272 287 251 249 257 282 74 322 188 211 208 206 181 204 211 222 223 232 217 218 232 205 225 244 226 243 241 242 253 261 42 141 194 225 208 214 228 218 188 192
310 316 296 314 251 218 244 229 233 259 355 20 204 257 207 240 253 190 201 216 208 223 237 243 225 203 216 209 228 254 226 259 272 282 282 113 112 193 205 222 201 164 156 177 185
325 289 249 207 204 203 237 249 271 317 6 320 276 214 249 191 191 245 208 219 227 211 231 260 284 252 180 208 211 243 259 223 226 267 284 192 193 213 200 210 138 147 151 169 181
320 257 146 195 194 222 236 240 250 259 264 260 274 296 265 300 201 227 241 218 214 237 211 242 263 264 169 186 229 207 245 261 276 228 254 270 109 118 57 305 163 141 168 166 176
283 260 167 186 208 229 241 247 273 303 264 254 288 299 306 310 277 238 274 224 201 215 235 214 248 253 245 208 201 257 213 231 250 255 277 295 256 153 167 171 97 140 182 159 187
293 297 205 200 233 233 228 249 263 273 243 243 241 250 269 278 293 278 283 53 136 253 246 210 230 256 264 196 192 220 249 233 238 259 243 269 240 171 123 120 162 154 156 131 210
288 261 204 213 247 284 285 224 245 225 266 271 262 272 292 262 265 280 260 154 136 249 25 298 232 228 244 235 200 199 228 261 267 256 257 247 272 185 168 135 138 120 135 173 194
250 269 12 272 217 236 263 283 239 245 195 246 252 254 256 254 257 228 272 174 168 161 223 243 247 252 266 278 288 210 205 215 242 267 275 280 53 45 131 99 119 133 157 166 179
295 343 334 296 293 297 267 249 264 268 240 208 245 254 229 263 324 299 320 283 332 173 214 223 253 275 266 267 261 275 276 209 211 234 258 274 127 117 113 112 142 195 157 166 182
343 312 280 288 284 257 249 249 247 261 269 247 285 254 253 15 355 317 311 306 304 312 222 212 244 241 241 253 246 230 247 257 218 211 229 248 119 127 143 160 184 161 166 170 157
Height
1533 1530 1527 1524 1522 1519 1516 1513 1511 1509 1507 1505 1505 1504 1502 1501 1502 1501 1500 1499 1497 1495 1494 1492 1487 1486 1471 1481 1493 1480 1475 1492 1491 1498 1497 1499 1502 1506 1511 1515 1518 1521 1531 1539 1546
1533 1530 1527 1524 1521 1518 1515 1513 1510 1508 1506 1504 1503 1502 1501 1500 1499 1498 1499 1497 1496 1494 1494 1493 1490 1484 1485 1487 1481 1480 1486 1488 1486 1490 1494 1500 1505 1508 1511 1514 1518 1523 1532 1540 1546
1532 1529 1526 1524 1520 1517 1515 1512 1509 1507 1505 1503 1501 1501 1500 1499 1498 1494 1494 1496 1495 1493 1493 1494 1492 1493 1478 1475 1482 1484 1492 1488 1488 1490 1494 1501 1503 1504 1509 1513 1517 1524 1533 1540 1544
1532 1529 1526 1523 1520 1517 1513 1511 1508 1506 1504 1502 1500 1499 1499 1499 1497 1493 1493 1494 1494 1493 1491 1492 1486 1483 1477 1479 1486 1486 1488 1491 1493 1493 1493 1496 1499 1504 1505 1509 1517 1526 1534 1539 1543
1531 1528 1525 1522 1519 1516 1513 1510 1507 1505 1503 1501 1499 1498 1499 1499 1493 1492 1492 1493 1493 1493 1490 1488 1479 1473 1475 1487 1497 1486 1486 1491 1494 1493 1496 1494 1497 1504 1508 1513 1518 1527 1535 1539 1542
1530 1527 1524 1521 1518 1515 1512 1509 1506 1503 1502 1500 1498 1498 1498 1497 1492 1492 1493 1492 1492 1493 1492 1487 1481 1478 1480 1488 1493 1482 1483 1489 1490 1492 1493 1496 1500 1504 1511 1516 1522 1528 1534 1538 1541
1529 1526 1523 1520 1516 1513 1510 1507 1504 1502 1501 1499 1498 1497 1497 1493 1490 1492 1492 1493 1493 1493 1491 1487 1485 1482 1475 1488 1481 1477 1483 1485 1487 1489 1500 1505 1508 1506 1512 1518 1524 1529 1533 1536 1539
1528 1525 1521 1518 1514 1511 1508 1505 1503 1501 1499 1498 1497 1496 1492 1486 1489 1490 1491 1491 1491 1491 1491 1488 1488 1485 1476 1479 1478 1474 1479 1503 1482 1486 1507 1516 1515 1508 1512 1517 1522 1527 1531 1535 1537
1526 1523 1520 1517 1513 1510 1506 1503 1500 1499 1498 1497 1497 1496 1489 1486 1486 1486 1489 1489 1490 1490 1490 1489 1489 1486 1479 1482 1515 1512 1529 1492 1487 1481 1490 1496 1503 1504 1510 1515 1520 1524 1528 1532 1536
1525 1522 1518 1515 1512 1509 1505 1501 1498 1497 1496 1495 1495 1498 1485 1482 1481 1484 1486 1488 1487 1488 1488 1487 1486 1484 1476 1491 1564 1554 1538 1484 1487 1482 1479 1481 1491 1498 1506 1511 1517 1521 1525 1529 1533
1523 1520 1517 1514 1512 1509 1505 1500 1500 1499 1496 1489 1487 1484 1482 1483 1483 1485 1486 1487 1486 1485 1484 1482 1484 1487 1475 1487 1493 1513 1513 1482 1477 1475 1477 1479 1486 1494 1500 1506 1512 1517 1522 1526 1530
1522 1519 1516 1513 1511 1509 1507 1505 1505 1506 1494 1485 1482 1481 1480 1481 1482 1481 1484 1486 1484 1482 1479 1481 1481 1472 1467 1476 1483 1495 1480 1488 1475 1473 1477 1483 1480 1490 1502 1507 1510 1514 1519 1524 1528
1521 1517 1514 1512 1510 1509 1509 1508 1506 1504 1495 1476 1474 1475 1477 1480 1479 1474 1480 1481 1479 1480 1475 1479 1469 1467 1467 1466 1468 1468 1472 1484 1492 1472 1468 1472 1487 1495 1527 1511 1508 1509 1515 1521 1525
1519 1516 1513 1511 1511 1508 1508 1507 1506 1504 1496 1467 1469 1471 1474 1475 1475 1472 1473 1479 1476 1475 1472 1470 1464 1461 1466 1468 1464 1472 1457 1462 1465 1478 1493 1469 1507 1510 1509 1501 1504 1504 1509 1515 1522
1517 1515 1513 1510 1510 1508 1509 1507 1505 1504 1507 1463 1464 1469 1468 1472 1465 1469 1470 1476 1474 1470 1471 1471 1464 1464 1468 1464 1459 1467 1454 1462 1463 1472 1475 1473 1485 1504 1495 1500 1505 1501 1504 1508 1514
1515 1513 1512 1511 1507 1508 1507 1507 1506 1504 1496 1457 1459 1463 1466 1467 1462 1464 1471 1474 1472 1469 1467 1465 1458 1461 1463 1462 1461 1460 1463 1462 1466 1472 1494 1469 1471 1508 1511 1504 1510 1507 1504 1502 1507
1512 1511 1508 1509 1507 1507 1507 1507 1502 1496 1449 1454 1453 1455 1460 1461 1463 1462 1468 1471 1474 1484 1480 1470 1464 1462 1464 1470 1464 1466 1473 1496 1501 1496 1493 1450 1479 1498 1490 1488 1484 1489 1490 1494 1500
1508 1507 1505 1504 1505 1507 1508 1504 1506 1462 1449 1445 1452 1450 1459 1451 1458 1457 1466 1471 1466 1466 1471 1478 1485 1465 1461 1469 1471 1469 1469 1491 1515 1499 1477 1457 1516 1500 1498 1478 1473 1477 1480 1486 1495
1505 1504 1502 1501 1501 1504 1507 1498 1482 1458 1448 1450 1448 1458 1454 1449 1452 1453 1460 1463 1459 1462 1473 1468 1467 1446 1453 1457 1465 1467 1473 1460 1475 1464 1473 1474 1473 1466 1471 1467 1461 1462 1470 1480 1488
1503 1501 1499 1502 1503 1505 1502 1493 1467 1459 1459 1459 1465 1449 1456 1448 1455 1453 1452 1449 1452 1452 1455 1454 1469 1439 1445 1453 1457 1462 1453 1475 1472 1506 1504 1484 1483 1477 1473 1461 1453 1462 1468 1476 1484
1504 1501 1496 1500 1502 1502 1494 1479 1466 1461 1465 1467 1461 1454 1449 1447 1445 1450 1448 1444 1445 1446 1449 1452 1456 1455 1444 1458 1464 1464 1468 1462 1459 1464 1487 1488 1478 1452 1458 1451 1451 1459 1463 1470 1477
1507 1496 1496 1498 1500 1492 1484 1475 1467 1462 1464 1466 1461 1457 1452 1444 1446 1447 1447 1440 1438 1444 1451 1450 1455 1465 1454 1443 1447 1450 1456 1460 1474 1480 1460 1463 1475 1438 1446 1450 1453 1458 1463 1467 1468
1507 1496 1493 1495 1491 1481 1473 1470 1463 1466 1465 1462 1463 1458 1450 1452 1458 1448 1442 1436 1441 1447 1448 1446 1461 1472 1461 1446 1444 1456 1451 1446 1449 1446 1466 1474 1467 1444 1446 1450 1455 1457 1464 1469 1472
1510 1491 1488 1490 1487 1480 1470 1462 1463 1465 1466 1461 1459 1457 1455 1456 1449 1452 1442 1437 1443 1447 1449 1445 1449 1460 1466 1452 1437 1455 1452 1447 1449 1461 1457 1454 1449 1445 1442 1448 1458 1462 1469 1475 1477
1508 1490 1486 1476 1477 1477 1471 1463 1458 1461 1462 1464 1464 1463 1461 1461 1451 1448 1442 1437 1443 1448 1449 1449 1458 1449 1441 1437 1434 1436 1444 1448 1456 1449 1458 1448 1453 1453 1440 1450 1459 1464 1473 1478 1480
1508 1502 1495 1490 1481 1473 1467 1468 1463 1457 1458 1460 1463 1456 1455 1455 1452 1460 1448 1439 1443 1443 1447 1446 1458 1449 1451 1437 1436 1443 1436 1435 1441 1446 1444 1442 1448 1442 1454 1453 1457 1467 1472 1478 1481
1510 1509 1506 1492 1481 1476 1469 1467 1466 1462 1457 1458 1456 1454 1451 1455 1461 1459 1454 1452 1449 1445 1441 1446 1449 1454 1464 1441 1439 1457 1442 1436 1433 1434 1439 1451 1443 1442 1454 1456 1458 1463 1471 1477 1481